Showing default

FLOCK 4Q 29, 58304

Orbit data source: Space-Track

FLOCK 4Q 29, 58304 is a payload satellite owned by Planet (US) in SSO that was launched on Sat, 11 Nov 2023 UTC via an FALCON 9 launch vehicle from the Air Force Western Test Range (AFWTR). Payload-class satellites include a variety of spacecraft equipped with specific instruments for various scientific and technological missions. These include communications satellites like Starlink; space stations such as the ISS; scientific satellites like the Hubble; Earth observation satellites from companies like Planet Labs, Umbra, and HawkEye 360; GPS; miniature CubeSats for education and research; and military/defense satellites.

Not visible in the next 10 days
Identifier
58304, 2023-174BA
Orbit
SSO
Country
Flag of USUS
Related business
Manufacturer
Planet
Mission
Operational Commercial Imaging
Bus & Motor
CUBESAT 3U, Unknown motor
Mass
5.7 kg wet, 5.7 kg dry
Launch date (UTC)
2023-11-11 (2 years ago)
Launch vehicle
FALCON 9
Launch site
Air Force Western Test Range (AFWTR)
Object type
Payload
Rocket body
Debris
Shape & HBR
Box + 2 Pan, 1.0 m
Radar Cross Section
0.072 m², Medium (>0.1 m² and < 1m²)

Expand to show TLE details & history
Last TLE update: 11 hours ago

TLE from 11 hours ago
0 FLOCK 4Q 29
1 58304U 23174BA  26126.76174769  .00023461  00000-0  37415-3 0  9990
2 58304  97.3921 217.1550 0004172 275.7249  84.3528 15.53224095139328
Epoch: 2026-05-06T18:16Z
TLE epoch observation values (Epoch: 2026-05-06T18:16:55.000Z)
Latitude
-0.00006°
Longitude
78.30825°
Altitude
410.178 km
Speed
7.665 km/s
True Right ascension
14h 28m 37s
True Declination
0° 00' 00"
Sunlit
Object was in full shadow at epoch
Visualization orbit readout
Latitude
Unknown
Longitude
Unknown
Altitude
Unknown
Speed
Unknown
Apparent Right ascension
Unknown
Apparent Declination
Unknown
Sunlit
N/A
Visualization observer readout
Local Sidereal Time
13:06:57
Azimuth
Unknown
Elevation
Unknown
Doppler factor
Unknown
Orbital elements
Apogee altitude
407.071 km
Perigee altitude
401.411 km
Semi-major axis
6,782.378 km
Eccentricity
0.00042
Inclination
97.3921°
RAAN
217.155°
Arg. of periapsis
275.7249°
True anomaly
84.40038°
Mean anomaly
84.3528°
Eccentric anomaly
84.37659°
Mean motion
3.88571 °/min
Orbital period
92.65 mins
BSTAR
0.00037415
Loading maneuver chart data...
Computing Atmospheric mass density...
Loading historical data...
Loading historical data...
Loading historical data...
Loading historical data...
Loading historical data...
Loading historical data...
Loading historical data...

Documentation

Showing up to 5 results
|